{"data":{"norad_id":52643,"epoch":"2026-09-20T04:06:17.080128Z","epoch_age_seconds":94875,"freshness":"FRESH","line1":"1 52643U 22052AX  26263.17103102  .00000488  00000+0  27485-4 0  9994","line2":"2 52643  53.1591  92.5063 0001172  91.8436 268.2699 15.31701005240677","mean_motion":15.31701005,"eccentricity":0.0001172,"inclination_deg":53.1591,"raan_deg":92.5063,"arg_perigee_deg":91.8436,"mean_anomaly_deg":268.2699,"bstar":2.7485e-5,"rev_number":24067,"period_min":94.013126275908,"perigee_km":469.93431134186,"apogee_km":471.53968740731,"semimajor_km":6848.8739993746,"source":"CELESTRAK","updated_at":"2026-09-20T09:00:40.098531Z"}}